Regional Weather Roundup
Issued by NWS Sioux Falls, SD

Home | Current Version | Previous Version | Graphics & Text | Print | Product List | Glossary Off
Versions: 1 2 3 4 5 6 7 8 9 10 11 12 13 14 15 16 17 18 19 20 21 22 23 24 25 26 27 28 29 30 31 32 33 34 35 36 37 38 39 40 41 42 43 44 45 46 47 48 49 50

000
ASUS43 KFSD 282102
RWRFSD

WEATHER ROUNDUP FOR SE SOUTH DAKOTA/SW MINNESOTA/NW IOWA
NATIONAL WEATHER SERVICE SIOUX FALLS SD
400 PM CDT SAT MAY 28 2016

NOTE: "FAIR" INDICATES FEW OR NO CLOUDS BELOW 12,000 FEET WITH NO
SIGNIFICANT WEATHER AND OR OBSTRUCTIONS TO VISIBILITY.


SDZ038>040-050-052>070-282200-
SOUTHEAST SOUTH DAKOTA

CITY           SKY/WX    TMP DP  RH WIND       PRES   REMARKS
BROOKINGS      CLOUDY    63  58  83 NE10      29.81R
CHAMBERLAIN    NOT AVBL
HURON          LGT RAIN  62  60  93 MISG      29.83S
MADISON        CLOUDY    63  63 100 N13       29.82R
MITCHELL       CLOUDY    64  60  87 NW12      29.84R
SIOUX FALLS    CLOUDY    65  58  78 NE8       29.78R
WINNER         FAIR      72  54  53 NW12G18   29.87R
YANKTON        CLOUDY    63  57  82 NW12      29.79S
$$

MNZ071-072-080-081-089-090-097-098-282200-
SOUTHWEST MINNESOTA

CITY           SKY/WX    TMP DP  RH WIND       PRES   REMARKS
FAIRMONT       CLOUDY    64  61  88 NE6       29.75F
JACKSON        MOSUNNY   66  57  72 N8        29.77S
LUVERNE        CLOUDY    63  57  82 N3        29.78S
MARSHALL       CLOUDY    63  58  83 N9        29.80R
MONTEVIDEO     DRIZZLE   63  61  94 NE6       29.80F
PIPESTONE      PTSUNNY   66  57  72 E9        29.79R
REDWOOD FALLS  LGT RAIN  63  59  87 NW6       29.78S
TRACY          CLOUDY    64  61  88 N10       29.79R
WINDOM         PTSUNNY   66  61  82 N7        29.78R
WORTHINGTON    PTSUNNY   69  62  78 N12       29.77S
$$

IAZ001>003-012>014-020>022-031-032-NEZ013-014-SDZ071-282200-
NORTHWEST IOWA

CITY           SKY/WX    TMP DP  RH WIND       PRES   REMARKS
DENISON        PTSUNNY   70  59  68 SW14G23   29.74F
ESTHERVILLE    TSTM      63  61  93 NE21      29.73F
SIOUX CITY     CLOUDY    70  61  73 NW14G22   29.74R
SPENCER        CLOUDY    69  60  73 SE5       29.74S
STORM LAKE       N/A     73  55  53 SW13G20   29.75S
$$

ABBREVIATIONS USED IN REMARKS
   TC - TEMPERATURE IN CELSIUS
  WCI - WIND CHILL INDEX
   HX - HEAT INDEX
  VSB - VISIBILITY




USA.gov is the U.S. government's official web portal to all federal, state and local government web resources and services.